Year,Month,Day,Hour,Minute,Value (Times are PST for temperature in C)
2014,12,02,08,39,-0.60
2014,12,02,08,40,-0.60
2014,12,02,08,41,-0.50
2014,12,02,08,42,-0.50
2014,12,02,08,43,-0.50
2014,12,02,08,44,-0.40
2014,12,02,08,45,-0.40
2014,12,02,08,46,-0.40
2014,12,02,08,47,-0.40
2014,12,02,08,48,-0.40
2014,12,02,08,49,-0.30
2014,12,02,08,50,-0.30
2014,12,02,08,51,-0.30
2014,12,02,08,52,-0.20
2014,12,02,08,53,-0.20
2014,12,02,08,54,-0.10
2014,12,02,08,55,0.00
2014,12,02,08,56,0.00
2014,12,02,08,57,0.10
2014,12,02,08,58,0.10
2014,12,02,08,59,0.20
2014,12,02,09,00,0.20
2014,12,02,09,01,0.30
2014,12,02,09,02,0.30
2014,12,02,09,03,0.30
2014,12,02,09,04,0.40
2014,12,02,09,05,0.40
2014,12,02,09,06,0.40
2014,12,02,09,07,0.50
2014,12,02,09,08,0.50
2014,12,02,09,09,0.50
2014,12,02,09,10,0.50
2014,12,02,09,11,0.50
2014,12,02,09,12,0.60
2014,12,02,09,13,0.60
2014,12,02,09,14,0.60
2014,12,02,09,15,0.70
2014,12,02,09,16,0.70
2014,12,02,09,17,0.70
2014,12,02,09,18,0.70
2014,12,02,09,19,0.70
2014,12,02,09,20,0.80
2014,12,02,09,21,0.80
2014,12,02,09,22,0.80
2014,12,02,09,23,0.80
2014,12,02,09,24,0.80
2014,12,02,09,25,0.80
2014,12,02,09,26,0.90
2014,12,02,09,27,0.90
2014,12,02,09,28,0.90
2014,12,02,09,29,0.90
2014,12,02,09,30,0.90
2014,12,02,09,31,1.00
2014,12,02,09,32,0.90
2014,12,02,09,33,1.00
2014,12,02,09,34,1.00
2014,12,02,09,35,1.00
2014,12,02,09,36,1.00
2014,12,02,09,37,1.00
2014,12,02,09,38,1.00
2014,12,02,09,39,1.10
2014,12,02,09,40,1.10
2014,12,02,09,41,1.10
2014,12,02,09,42,1.10
2014,12,02,09,43,1.10
2014,12,02,09,44,1.10
2014,12,02,09,45,1.20
2014,12,02,09,46,1.20
2014,12,02,09,47,1.20
2014,12,02,09,48,1.30
2014,12,02,09,49,1.30
2014,12,02,09,50,1.30
2014,12,02,09,51,1.30
2014,12,02,09,52,1.30
2014,12,02,09,53,1.40
2014,12,02,09,54,1.40
2014,12,02,09,55,1.50
2014,12,02,09,56,1.50
2014,12,02,09,57,1.60
2014,12,02,09,58,1.70
2014,12,02,09,59,1.70
2014,12,02,10,00,1.80
2014,12,02,10,01,1.80
2014,12,02,10,02,1.80
2014,12,02,10,03,1.90
2014,12,02,10,04,1.90
2014,12,02,10,05,1.90
2014,12,02,10,06,2.00
2014,12,02,10,07,2.00
2014,12,02,10,08,2.00
2014,12,02,10,09,2.10
2014,12,02,10,10,2.10
2014,12,02,10,11,2.10
2014,12,02,10,12,2.10
2014,12,02,10,13,2.20
2014,12,02,10,14,2.20
2014,12,02,10,15,2.20
2014,12,02,10,16,2.20
2014,12,02,10,17,2.20
2014,12,02,10,18,2.20
2014,12,02,10,19,2.20
2014,12,02,10,20,2.20
2014,12,02,10,21,2.30
2014,12,02,10,22,2.30
2014,12,02,10,23,2.30
2014,12,02,10,24,2.30
2014,12,02,10,25,2.40
2014,12,02,10,26,2.40
2014,12,02,10,27,2.50
2014,12,02,10,28,2.50
2014,12,02,10,29,2.50
2014,12,02,10,30,2.50
2014,12,02,10,31,2.50
2014,12,02,10,32,2.60
2014,12,02,10,33,2.60
2014,12,02,10,34,2.60
2014,12,02,10,35,2.60
2014,12,02,10,36,2.60
2014,12,02,10,37,2.60
2014,12,02,10,38,2.60
2014,12,02,10,39,2.60
2014,12,02,10,40,2.60
2014,12,02,10,41,2.60
2014,12,02,10,42,2.60
2014,12,02,10,43,2.60
2014,12,02,10,44,2.50
2014,12,02,10,45,2.50
2014,12,02,10,46,2.50
2014,12,02,10,47,2.50
2014,12,02,10,48,2.50
2014,12,02,10,49,2.50
2014,12,02,10,50,2.60
2014,12,02,10,51,2.60
2014,12,02,10,52,2.60
2014,12,02,10,53,2.60
2014,12,02,10,54,2.60
2014,12,02,10,55,2.70
2014,12,02,10,56,2.70
2014,12,02,10,57,2.80
2014,12,02,10,58,2.80
2014,12,02,10,59,2.80
2014,12,02,11,00,2.80
2014,12,02,11,01,2.90
2014,12,02,11,02,2.90
2014,12,02,11,03,2.90
2014,12,02,11,04,2.90
2014,12,02,11,05,2.90
2014,12,02,11,06,3.00
2014,12,02,11,07,3.00
2014,12,02,11,08,3.10
2014,12,02,11,09,3.10
2014,12,02,11,10,3.10
2014,12,02,11,11,3.20
2014,12,02,11,12,3.20
2014,12,02,11,13,3.20
2014,12,02,11,14,3.20
2014,12,02,11,15,3.20
2014,12,02,11,16,3.20
2014,12,02,11,17,3.20
2014,12,02,11,18,3.10
2014,12,02,11,19,3.10
2014,12,02,11,20,3.10
2014,12,02,11,21,3.10
2014,12,02,11,22,3.00
2014,12,02,11,23,3.00
2014,12,02,11,24,3.00
2014,12,02,11,25,2.90
2014,12,02,11,26,2.90
2014,12,02,11,27,2.90
2014,12,02,11,28,2.90
2014,12,02,11,29,3.00
2014,12,02,11,30,3.00
2014,12,02,11,31,3.00
2014,12,02,11,32,3.00
2014,12,02,11,33,3.00
2014,12,02,11,34,3.00
2014,12,02,11,35,3.00
2014,12,02,11,36,3.00
2014,12,02,11,37,3.10
2014,12,02,11,38,3.00
2014,12,02,11,39,3.00
2014,12,02,11,40,3.00
2014,12,02,11,41,3.00
2014,12,02,11,42,3.00
2014,12,02,11,43,3.00
2014,12,02,11,44,3.10
2014,12,02,11,45,3.10
2014,12,02,11,46,3.20
2014,12,02,11,47,3.20
2014,12,02,11,48,3.30
2014,12,02,11,49,3.30
2014,12,02,11,50,3.30
2014,12,02,11,51,3.20
2014,12,02,11,52,3.20
2014,12,02,11,53,3.30
2014,12,02,11,54,3.30
2014,12,02,11,55,3.30
2014,12,02,11,56,3.30
2014,12,02,11,57,3.30
2014,12,02,11,58,3.30
2014,12,02,11,59,3.30
2014,12,02,12,00,3.30
2014,12,02,12,01,3.30
2014,12,02,12,02,3.30
2014,12,02,12,03,3.40
2014,12,02,12,04,3.40
2014,12,02,12,05,3.40
2014,12,02,12,06,3.50
2014,12,02,12,07,3.50
2014,12,02,12,08,3.50
2014,12,02,12,09,3.60
2014,12,02,12,10,3.50
2014,12,02,12,11,3.50
2014,12,02,12,12,3.50
2014,12,02,12,13,3.50
2014,12,02,12,14,3.50
2014,12,02,12,15,3.50
2014,12,02,12,16,3.50
2014,12,02,12,17,3.50
2014,12,02,12,18,3.50
2014,12,02,12,19,3.60
2014,12,02,12,20,3.60
2014,12,02,12,21,3.60
2014,12,02,12,22,3.70
2014,12,02,12,23,3.70
2014,12,02,12,24,3.70
2014,12,02,12,25,3.70
2014,12,02,12,26,3.80
2014,12,02,12,27,3.80
2014,12,02,12,28,3.80
2014,12,02,12,29,3.70
2014,12,02,12,30,3.70
2014,12,02,12,31,3.70
2014,12,02,12,32,3.70
2014,12,02,12,33,3.70
2014,12,02,12,34,3.70
2014,12,02,12,35,3.80
2014,12,02,12,36,3.80
2014,12,02,12,37,3.80
2014,12,02,12,38,3.70
2014,12,02,12,39,3.70
2014,12,02,12,40,3.70
2014,12,02,12,41,3.70
2014,12,02,12,42,3.70
2014,12,02,12,43,3.70
2014,12,02,12,44,3.70
2014,12,02,12,45,3.80
2014,12,02,12,46,3.80
2014,12,02,12,47,3.80
2014,12,02,12,48,3.80
2014,12,02,12,49,3.90
2014,12,02,12,50,3.80
2014,12,02,12,51,3.80
2014,12,02,12,52,3.80
2014,12,02,12,53,3.80
2014,12,02,12,54,3.80
2014,12,02,12,55,3.80
2014,12,02,12,56,3.80
2014,12,02,12,57,3.80
2014,12,02,12,58,3.90
2014,12,02,12,59,3.90
2014,12,02,13,00,3.90
2014,12,02,13,01,3.90
2014,12,02,13,02,3.90
2014,12,02,13,03,3.80
2014,12,02,13,04,3.80
2014,12,02,13,05,3.80
2014,12,02,13,06,3.90
2014,12,02,13,07,3.90
2014,12,02,13,08,3.90
2014,12,02,13,09,3.90
2014,12,02,13,10,3.90
2014,12,02,13,11,3.90
2014,12,02,13,12,3.90
2014,12,02,13,13,3.90
2014,12,02,13,14,3.90
2014,12,02,13,15,3.80
2014,12,02,13,16,3.80
2014,12,02,13,17,3.70
2014,12,02,13,18,3.70
2014,12,02,13,19,3.70
2014,12,02,13,20,3.80
2014,12,02,13,21,3.80
2014,12,02,13,22,3.80
2014,12,02,13,23,3.90
2014,12,02,13,24,3.90
2014,12,02,13,25,3.90
2014,12,02,13,26,3.90
2014,12,02,13,27,3.90
2014,12,02,13,28,3.90
2014,12,02,13,29,3.90
2014,12,02,13,30,3.90
2014,12,02,13,31,3.90
2014,12,02,13,32,3.90
2014,12,02,13,33,3.90
2014,12,02,13,34,3.90
2014,12,02,13,35,3.90
2014,12,02,13,36,3.90
2014,12,02,13,37,3.90
2014,12,02,13,38,3.90
2014,12,02,13,39,3.90
2014,12,02,13,40,3.90
2014,12,02,13,41,3.90
2014,12,02,13,42,3.90
2014,12,02,13,43,3.90
2014,12,02,13,44,3.90
2014,12,02,13,45,3.90
2014,12,02,13,46,3.90
2014,12,02,13,47,3.90
2014,12,02,13,48,3.90
2014,12,02,13,49,4.00
2014,12,02,13,50,4.00
2014,12,02,13,51,4.00
2014,12,02,13,52,4.00
2014,12,02,13,53,4.10
2014,12,02,13,54,4.10
2014,12,02,13,55,4.10
2014,12,02,13,56,4.10
2014,12,02,13,57,4.10
2014,12,02,13,58,4.10
2014,12,02,13,59,4.10
2014,12,02,14,00,4.10
2014,12,02,14,01,4.10
2014,12,02,14,02,4.10
2014,12,02,14,03,4.10
2014,12,02,14,04,4.10
2014,12,02,14,05,4.10
2014,12,02,14,06,4.10
2014,12,02,14,07,4.10
2014,12,02,14,08,4.10
2014,12,02,14,09,4.20
2014,12,02,14,10,4.20
2014,12,02,14,11,4.20
2014,12,02,14,12,4.20
2014,12,02,14,13,4.20
2014,12,02,14,14,4.20
2014,12,02,14,15,4.30
2014,12,02,14,16,4.30
2014,12,02,14,17,4.30
2014,12,02,14,18,4.30
2014,12,02,14,19,4.30
2014,12,02,14,20,4.20
2014,12,02,14,21,4.20
2014,12,02,14,22,4.20
2014,12,02,14,23,4.20
2014,12,02,14,24,4.20
2014,12,02,14,25,4.10
2014,12,02,14,26,4.10
2014,12,02,14,27,4.10
2014,12,02,14,28,4.10
2014,12,02,14,29,4.10
2014,12,02,14,30,4.10
2014,12,02,14,31,4.10
2014,12,02,14,32,4.00
2014,12,02,14,33,4.00
2014,12,02,14,34,4.00
2014,12,02,14,35,4.00
2014,12,02,14,36,3.90
2014,12,02,14,37,3.90
2014,12,02,14,38,3.90
2014,12,02,14,39,3.90
2014,12,02,14,40,3.90
2014,12,02,14,41,3.90
2014,12,02,14,42,3.90
2014,12,02,14,43,3.90
2014,12,02,14,44,3.90
2014,12,02,14,45,3.90
2014,12,02,14,46,3.90
2014,12,02,14,47,3.80
2014,12,02,14,48,3.80
2014,12,02,14,49,3.80
2014,12,02,14,50,3.80
2014,12,02,14,51,3.80
2014,12,02,14,52,3.70
2014,12,02,14,53,3.70
2014,12,02,14,54,3.70
2014,12,02,14,55,3.70
2014,12,02,14,56,3.70
2014,12,02,14,57,3.70
2014,12,02,14,58,3.70
2014,12,02,14,59,3.70
2014,12,02,15,00,3.70
2014,12,02,15,01,3.70
2014,12,02,15,02,3.70
2014,12,02,15,03,3.60
2014,12,02,15,04,3.60
2014,12,02,15,05,3.60
2014,12,02,15,06,3.60
2014,12,02,15,07,3.60
2014,12,02,15,08,3.60
2014,12,02,15,09,3.60
2014,12,02,15,10,3.60
2014,12,02,15,11,3.50
2014,12,02,15,12,3.50
2014,12,02,15,13,3.50
2014,12,02,15,14,3.50
2014,12,02,15,15,3.50
2014,12,02,15,16,3.50
2014,12,02,15,17,3.50
2014,12,02,15,18,3.50
2014,12,02,15,19,3.50
2014,12,02,15,20,3.60
2014,12,02,15,21,3.50
2014,12,02,15,22,3.50
2014,12,02,15,23,3.60
2014,12,02,15,24,3.60
2014,12,02,15,25,3.60
2014,12,02,15,26,3.50
2014,12,02,15,27,3.50
2014,12,02,15,28,3.50
2014,12,02,15,29,3.50
2014,12,02,15,30,3.50
2014,12,02,15,31,3.50
2014,12,02,15,32,3.40
2014,12,02,15,33,3.40
2014,12,02,15,34,3.40
2014,12,02,15,35,3.40
2014,12,02,15,36,3.40
2014,12,02,15,37,3.40
2014,12,02,15,38,3.30
2014,12,02,15,39,3.30
2014,12,02,15,40,3.30
2014,12,02,15,41,3.30
2014,12,02,15,42,3.30
2014,12,02,15,43,3.20
2014,12,02,15,44,3.20
2014,12,02,15,45,3.20
2014,12,02,15,46,3.20
2014,12,02,15,47,3.10
2014,12,02,15,48,3.10
2014,12,02,15,49,3.00
2014,12,02,15,50,3.00
2014,12,02,15,51,3.00
2014,12,02,15,52,3.00
2014,12,02,15,53,3.00
2014,12,02,15,54,2.90
2014,12,02,15,55,2.90
2014,12,02,15,56,2.90
2014,12,02,15,57,2.90
2014,12,02,15,58,2.80
2014,12,02,15,59,2.80
2014,12,02,16,00,2.80
2014,12,02,16,01,2.80
2014,12,02,16,02,2.80
2014,12,02,16,03,2.80
2014,12,02,16,04,2.80
2014,12,02,16,05,2.80
2014,12,02,16,06,2.80
2014,12,02,16,07,2.80
2014,12,02,16,08,2.80
2014,12,02,16,09,2.80
2014,12,02,16,10,2.80
2014,12,02,16,11,2.80
2014,12,02,16,12,2.80
